Overview Statistics Trail Chart Weather Telemetry Raw packets
 

This is the latest recevied weather packets stored in our database for station/object NT9G. If no packets are shown the sender has not sent any weather packets the latest 10 day(s).

<< 26 27 28 29 30 31 32 >>
Time Temp. Humidity Pressure Rain* Wind** Luminosity Snow
1777681827 11.67° C 44% 1017.1 hPa 0.25 mm - - -
1777681227 12.22° C 46% 1017 hPa 0.25 mm - - -
1777680926 12.22° C 46% 1017 hPa 0.25 mm - - -
1777680326 12.22° C 44% 1017.1 hPa 0.25 mm - - -
1777680025 12.22° C 44% 1017.2 hPa 0.25 mm - - -
1777679134 12.22° C 43% 1017.2 hPa 0.25 mm - - -
1777678824 12.22° C 43% 1017.3 hPa 0.25 mm - - -
1777678524 12.22° C 43% 1017.3 hPa 0.25 mm - - -
1777678224 12.22° C 44% 1017.3 hPa 0.25 mm - - -
1777677924 12.22° C 42% 1017.3 hPa 0.25 mm - - -
1777677623 12.22° C 42% 1017.4 hPa 0.25 mm - - -
1777677323 12.78° C 42% 1017.4 hPa 0.25 mm - - -
1777677023 12.78° C 40% 1017.3 hPa 0.25 mm - - -
1777676722 12.78° C 41% 1017.3 hPa 0.25 mm - - -
1777676422 13.33° C 40% 1017.4 hPa 0.25 mm - - -
1777676122 13.33° C 41% 1017.4 hPa 0.25 mm - - -
1777675821 13.33° C 41% 1017.4 hPa 0.25 mm - - -
1777675521 13.33° C 41% 1017.4 hPa 0.25 mm - - -
1777675222 13.33° C 41% 1017.3 hPa 0.25 mm - - -
1777674619 13.89° C 40% 1017.5 hPa 0.25 mm - - -
1777674319 13.33° C 39% 1017.4 hPa 0.25 mm - - -
1777674019 13.89° C 41% 1017.4 hPa 0.25 mm - - -
1777673718 13.33° C 41% 1017.5 hPa 0.25 mm - - -
1777672818 14.44° C 37% 1017.6 hPa 0.25 mm - - -
1777672517 15° C 41% 1017.5 hPa 0.25 mm - - -

* Rain since midnight (hover to see other rain measurements)
** Current wind speed in m/s (hover to see current wind gust speed)